Погода в Колове

Россия / Республика Карелия     61°48′06″N   36°47′32″E
темп.,
°C
ветер,
м/с
пор.,
м/с
влажн.,
%
обл.,
%
осадки,
мм/ч
давл.,
гПа
погр.,
м
12 апреля, пн
пн1200:00−2ююз279221 0.0 1031106
03:00−4ююв129516 0.0 103325
06:00−6юв119359 0.0 103318
09:00+4ююв3118279 0.0 1032386
12:00+6ююв4109794 0.0 1030451
15:00+11ю4139549 0.0 1028689
18:00+11ю41390100 0.0 1027583
21:00+9ю51590100 0.0 1027484
13 апреля, вт
вт1300:00+7ю4148850 0.0 1026426
03:00+6ю31192100 0.0 1024359
06:00+6ю31196100 1.1 1023431
09:00+7ю31097100 3.2 1021390
12:00+7ю31097100 1.8 1021405
15:00+9ю3794100 1.8 1021466
18:00+8ю2897100 0.0 1020368
21:00+7ю2799100 0.0 1020249
14 апреля, ср
ср1400:00+6ю2499100 0.0 1020130
03:00+5ю1399100 0.0 1019102
06:00+6ююв1599100 0.0 1018169
09:00+6ююз13100100 0.3 1017140
12:00+6зсз1399100 0.3 1017195
15:00+5ссз2597100 1.3 1017313
18:00+3ссз3796100 1.0 1018471
21:00+3с1398100 1.0 1020242
15 апреля, чт
чт1500:00+2з1197100 0.0 102117
03:00+1з119721 0.0 102210
06:000ссз119630 0.0 102415
09:00+4ссв247879 0.0 1025504
12:00+6ссв2366100 0.1 10261171
15:00+7ссв235764 0.1 10261379
18:00+6ссв24645 0.0 1027385
21:00+2с22781 0.0 102817
16 апреля, пт
пт1600:00+1ссв11805 0.0 102910
03:000ссв11752 0.0 103010
06:000св11765 0.0 103011
09:00+5ссв13612 0.0 1032431
12:00+8ссв23555 0.0 10321264
15:00+9ссв345027 0.0 10331654
18:00+8ссв37575 0.0 1034633
21:00+3св39685 0.0 1036373